FM-5

Last updated on Thu Nov 21 2024 00:02:41 GMT+0000 (Coordinated Universal Time)

1 35493U 09034A 24324.99225257 -.00000198 00000+0 00000+0 0 9993 2 35493 0.0140 286.5431 0000850 244.5382 159.5109 1.00270483 40886
UTC large
Height (km)
Speed (km/s)
/
Latitude / Longitude
Inclination (degrees)
Orbital Period (minutes)
Azimuth
Elevation
Range (km)
Doppler Factor

Next 0 passes for location: London (51.5072 / 0.1276)

Sorry there are no passes over London.